Content
SEND FEEDBACK

Daily
Averages
Monthly
Summary
Switzerland

BERN, SWITZERLAND


Home > Europe > Switzerland
Elevation: 1673 feet     Latitude: 46 55N     Longitude: 007 30E

WEATHER
 
SELECT A DAY
Number of Records: 186,287;   Date Range: 7/1/96 - 11/27/14
 
SHARE

PRINT THIS DATA

[ ← Previous Day ]
WEATHER ALMANAC - AUGUST 14, 2013
[ Next Day → ]
[ °C ]   °F
Weather ElementAverageHighLow
Temperature63 °F71.6 °F (5:20 pm)53.6 °F (5:50 am)
Dewpoint49.3 °F51.8 °F (12:50 am)48.2 °F (2:20 am)
Humidity61.8 %82 % (12:50 am)46 % (5:20 pm)
Barometer30.18 in30.21 in (9:50 pm)30.15 in (3:50 am)
Wind Speed4.5 mph8.1 mph (10:50 am)
Weather ElementAverage
Visibility6.2 mi
Wind DirectionESE (105.2 °)

Weather ElementTotal
Precipitation---
Heating Degree Days2.4 (Base 65)
Growing Degree Days12.6 (Base 50)
Averaged from 46 records on August 14, 2013
WEATHER CONDITIONS BREAKOUT
WIND DIRECTION BREAKOUT
WEATHER BY HOUR - AUGUST 14, 2013
[ °C ]   °F
Local TimeTemperatureDewpointHumidityBarometerVisibilityWind DirectionWind SpeedGust SpeedPrecipitationEventsConditions
12:50 AM57.2 °F51.8 °F82 %30.18 in6.2 miVariable2.3 mphScattered Clouds
1:20 AM59.0 °F50.0 °F72 %30.18 in6.2 miVariable1.2 mphScattered Clouds
1:50 AM59.0 °F50.0 °F72 %30.18 in6.2 miNW (320°)3.5 mphScattered Clouds
2:20 AM59.0 °F48.2 °F67 %30.18 in6.2 miVariable2.3 mphScattered Clouds
2:50 AM55.4 °F48.2 °F77 %30.18 in6.2 miNorth (350°)4.6 mphMostly Cloudy
3:20 AM57.2 °F48.2 °F72 %30.18 in6.2 miVariable2.3 mphMostly Cloudy
3:50 AM57.2 °F48.2 °F72 %30.15 in6.2 miVariable2.3 mphMostly Cloudy
4:20 AM57.2 °F48.2 °F72 %30.15 in6.2 miVariable1.2 mphMostly Cloudy
4:50 AM57.2 °F48.2 °F72 %30.15 in6.2 miVariable2.3 mphMostly Cloudy
5:20 AM55.4 °F48.2 °F77 %30.15 in6.2 miVariable2.3 mphMostly Cloudy
5:50 AM53.6 °F48.2 °F82 %30.15 in6.2 miVariable2.3 mphMostly Cloudy
6:20 AM55.4 °F50.0 °F82 %30.15 in6.2 miVariable2.3 mphScattered Clouds
6:50 AM55.4 °F50.0 °F82 %30.15 in6.2 miNNW (330°)4.6 mphMostly Cloudy
7:20 AM57.2 °F50.0 °F77 %30.18 in6.2 miWest (280°)6.9 mphMostly Cloudy
7:50 AM59.0 °F50.0 °F72 %30.18 in6.2 miVariable2.3 mphPartly Cloudy
8:20 AM59.0 °F48.2 °F67 %30.18 in6.2 miVariable3.5 mphPartly Cloudy
8:50 AM60.8 °F48.2 °F63 %30.18 in6.2 miVariable2.3 mphScattered Clouds
9:20 AM62.6 °F48.2 °F59 %30.18 in6.2 miNorth (350°)5.8 mphScattered Clouds
9:50 AM62.6 °F48.2 °F59 %30.18 in6.2 miVariable4.6 mphPartly Cloudy
10:20 AM64.4 °F50.0 °F59 %30.18 in6.2 miNorth (10°)5.8 mphPartly Cloudy
10:50 AM64.4 °F48.2 °F56 %30.18 in6.2 miNNW (330°)8.1 mphPartly Cloudy
11:20 AM66.2 °F50.0 °F56 %30.18 in6.2 miVariable5.8 mphPartly Cloudy
11:50 AM68.0 °F50.0 °F52 %30.18 in6.2 miNorth (350°)6.9 mphPartly Cloudy
12:20 PM68.0 °F48.2 °F49 %30.18 in6.2 miNNW (340°)6.9 mphScattered Clouds
12:50 PM69.8 °F50.0 °F49 %30.18 in6.2 miNNE (20°)6.9 mphScattered Clouds
1:20 PM69.8 °F50.0 °F49 %30.18 in6.2 miVariable5.8 mphScattered Clouds
1:50 PM69.8 °F50.0 °F49 %30.18 in6.2 miVariable5.8 mphScattered Clouds
2:20 PM68.0 °F50.0 °F52 %30.18 in6.2 miNorth (360°)6.9 mphMostly Cloudy
2:50 PM68.0 °F50.0 °F52 %30.18 in6.2 miVariable5.8 mphScattered Clouds
3:20 PM69.8 °F50.0 °F49 %30.18 in6.2 miNorth (360°)8.1 mphScattered Clouds
3:50 PM69.8 °F50.0 °F49 %30.18 in6.2 miNorth (10°)8.1 mphScattered Clouds
4:20 PM69.8 °F50.0 °F49 %30.18 in6.2 miNorth (350°)8.1 mphScattered Clouds
4:50 PM69.8 °F50.0 °F49 %30.18 in6.2 miVariable6.9 mphScattered Clouds
5:20 PM71.6 °F50.0 °F46 %30.18 in6.2 miVariable3.5 mphScattered Clouds
5:50 PM69.8 °F48.2 °F46 %30.18 in6.2 miNorth (10°)5.8 mphMostly Cloudy
6:20 PM68.0 °F48.2 °F49 %30.18 in6.2 miNorth (10°)6.9 mphMostly Cloudy
6:50 PM68.0 °F48.2 °F49 %30.18 in6.2 miNorth (10°)6.9 mphMostly Cloudy
7:20 PM68.0 °F48.2 °F49 %30.18 in6.2 miNorth (350°)4.6 mphMostly Cloudy
7:50 PM68.0 °F50.0 °F52 %30.18 in6.2 miNorth (350°)5.8 mphMostly Cloudy
8:20 PM64.4 °F48.2 °F56 %30.18 in6.2 miNorth (350°)4.6 mphScattered Clouds
8:50 PM62.6 °F48.2 °F59 %30.18 in6.2 miVariable3.5 mphPartly Cloudy
9:50 PM62.6 °F50.0 °F63 %30.21 in6.2 miCalmScattered Clouds
10:20 PM60.8 °F50.0 °F68 %30.21 in6.2 miVariable2.3 mphMostly Cloudy
10:50 PM60.8 °F50.0 °F68 %30.21 in6.2 miVariable3.5 mphMostly Cloudy
11:20 PM59.0 °F50.0 °F72 %30.21 in6.2 miVariable1.2 mphMostly Cloudy
11:50 PM60.8 °F50.0 °F68 %30.21 in6.2 miVariable3.5 mphOvercast
Hourly data recorded from LSZB, located miles away from Bern, Switzerland







STORIES FROM OUR PARTNERS